Location: Poughquag
(41.6090°N, 73.6820°W)
Time: 03:41:11
(UTC-04:00)

Transit 4A - Pass Details

Date: 07 June 2020
Orbit: 866 x 978 km, 66.8° (Epoch: 06 July)

Event Time Altitude Azimuth Distance (km) Brightness Sun altitude
Rises 23:13:00 0° 169° (S) 3,433 - -21.4°
Reaches altitude 10° 23:15:58 10° 154° (SSE) 2,504 - -21.6°
Maximum altitude 23:20:16 22° 106° (ESE) 1,816 - -22.0°
Exits shadow 23:20:53 22° 97° (E) 1,836 9.2 -22.0°
Drops below altitude 10° 23:24:38 10° 57° (ENE) 2,546 10.3 -22.3°
Sets 23:27:40 0° 43° (NE) 3,507 11.2 -22.5°
